Location: Newark
(41.0000°N, 28.9500°W)
Time: 18:52:30
(UTC+00:00)

N. Korean satellite - Pass Details

Date: 03 February 2020
Orbit: 456 x 506 km, 97.2° (Epoch: 17 February)

Event Time Altitude Azimuth Distance (km) Brightness Sun altitude
Rises 08:08:50 0° 4° (N) 2,573 10.2 -11.0°
Reaches altitude 10° 08:10:58 10° 357° (N) 1,695 9.2 -10.6°
Maximum altitude 08:14:25 41° 287° (WNW) 729 7.0 -9.9°
Drops below altitude 10° 08:17:54 10° 215° (SW) 1,703 9.1 -9.3°
Sets 08:20:03 0° 209° (SSW) 2,586 10.1 -8.9°
